EW3758 Weather Reports


time (UTC)temp
C
wind
direction
speed
KPH
gust
KPH
rain 1hr
cm
rain 24hr
cm
rain mn
cm
humidity
%
barometer
mb
20260506024552 11 198 0.0 0.0 0.00 0.00 0.00 76 1011.5
20260506023041 11 203 0.0 0.0 0.00 0.00 0.00 73 1011.5
20260506021556 12 306 0.0 0.0 0.00 0.00 0.00 68 1011.4
20260506020040 14 311 0.0 0.0 0.00 0.00 0.00 57 1011.2
20260506014540 14 310 0.0 0.0 0.00 0.00 0.00 54 1011.1
20260506013045 15 319 0.0 0.0 0.00 0.00 0.00 53 1011.0
20260506011540 15 87 0.0 0.0 0.00 0.00 0.00 54 1011.0
20260506010039 15 46 0.0 0.0 0.00 0.00 0.00 53 1011.1
20260506004536 15 126 0.0 0.0 0.00 0.00 0.00 55 1011.2
20260506003035 14 96 0.0 0.0 0.00 0.00 0.00 56 1011.3
20260506001533 14 92 0.0 0.0 0.00 0.00 0.00 54 1011.4
20260506000032 14 25 0.0 0.0 0.00 0.00 0.00 57 1011.4
20260505234523 13 101 0.0 0.0 0.00 0.00 0.00 58 1011.5
20260505233018 13 88 0.0 0.0 0.00 0.00 0.00 58 1011.8
20260505231517 13 112 0.0 0.0 0.00 0.00 0.00 61 1012.0
20260505230012 13 97 0.0 0.0 0.00 0.00 0.00 60 1012.2
20260505224510 13 99 0.0 0.0 0.00 0.00 0.00 60 1012.3
20260505223006 13 86 0.0 0.0 0.00 0.00 0.00 58 1012.6
20260505221503 14 174 0.0 0.0 0.00 0.00 0.00 61 1012.8
20260505220059 13 112 0.0 0.0 0.00 0.00 0.00 64 1013.0
20260505214615 13 123 0.0 0.0 0.00 0.00 0.00 68 1013.3
20260505213057 12 229 0.0 0.0 0.00 0.00 0.00 69 1013.6
20260505211550 12 174 0.0 0.0 0.00 0.00 0.00 74 1013.8
20260505210048 12 189 0.0 0.0 0.00 0.00 0.00 74 1014.0
20260505204547 11 180 0.0 0.0 0.00 0.00 0.00 74 1014.0
20260505203042 10 199 0.0 0.0 0.00 0.00 0.00 80 1014.2
20260505201538 10 167 0.0 0.0 0.00 0.00 0.00 81 1014.3
20260505200043 10 180 0.0 0.0 0.00 0.00 0.00 80 1014.2
20260505194533 10 173 0.0 0.0 0.00 0.00 0.00 84 1014.4
20260505193035 9 132 0.0 0.0 0.00 0.00 0.00 83 1014.3
20260505191530 8 195 0.0 0.0 0.00 0.00 0.00 86 1014.5
20260505190029 8 140 0.0 0.0 0.00 0.00 0.00 87 1014.6
20260505184524 7 163 0.0 0.0 0.00 0.00 0.00 88 1014.5
20260505183029 6 172 0.0 0.0 0.00 0.00 0.00 93 1014.5
20260505181521 6 172 0.0 0.0 0.00 0.00 0.00 93 1014.5
20260505180023 6 121 0.0 0.0 0.00 0.00 0.00 94 1014.4
20260505174518 5 119 0.0 0.0 0.00 0.00 0.00 96 1014.1
20260505173017 5 119 0.0 0.0 0.00 0.00 0.00 97 1013.8
20260505171519 4 118 0.0 0.0 0.00 0.00 0.00 97 1013.7
20260505170017 3 118 0.0 0.0 0.00 0.00 0.00 98 1013.7
20260505164516 2 117 0.0 0.0 0.00 0.00 0.00 97 1013.5
20260505163018 2 75 0.0 0.0 0.00 0.00 0.00 97 1013.4
20260505161509 1 75 0.0 0.0 0.00 0.00 0.00 97 1013.2
20260505153006 1 74 0.0 0.0 0.00 0.00 0.00 97 1012.6
20260505151503 0 74 0.0 0.0 0.00 0.00 0.00 96 1012.4
20260505140110 -17 0.0 0.0 0.00 0.00 0.00 1011.2
20260505124537 -17 0.0 0.0 0.00 0.00 0.00 1010.6
20260505123031 -17 0.0 0.0 0.00 0.00 0.00 1010.6
20260505121536 -17 0.0 0.0 0.00 0.00 0.00 1010.6
20260505120037 -17 0.0 0.0 0.00 0.00 0.00 1010.4
20260505114522 -17 0.0 0.0 0.00 0.00 0.00 1010.6
20260505113016 -17 0.0 0.0 0.00 0.00 0.00 1010.6
20260505111516 -17 0.0 0.0 0.00 0.00 0.00 1010.7
20260505101556 -17 0.0 0.0 0.00 0.00 0.00 1011.1
20260505100051 -17 0.0 0.0 0.00 0.00 0.00 1011.1
20260505094547 -17 0.0 0.0 0.00 0.00 0.00 1011.1
20260505093054 -17 0.0 0.0 0.00 0.00 0.00 1011.3
20260505091557 -17 0.0 0.0 0.00 0.00 0.00 1011.9
20260505090043 -17 0.0 0.0 0.00 0.00 0.00 1011.8
20260505084543 -17 0.0 0.0 0.00 0.00 0.00 1011.5
20260505083046 -17 0.0 0.0 0.00 0.00 0.00 1011.6
20260505081545 -17 0.0 0.0 0.00 0.00 0.00 1011.7
20260505080046 -17 0.0 0.0 0.00 0.00 0.00 1012.1
20260505074545 -17 0.0 0.0 0.00 0.00 0.00 1012.0
20260505073052 -17 0.0 0.0 0.00 0.00 0.00 1012.0
20260505071554 -17 0.0 0.0 0.00 0.00 0.00 1012.0
20260505070044 -17 0.0 0.0 0.00 0.00 0.00 1011.9
20260505064543 -17 0.0 0.0 0.00 0.00 0.00 1011.8
20260505063041 -17 0.0 0.0 0.00 0.00 0.00 1011.8
20260505061546 -17 0.0 0.0 0.00 0.00 0.00 1011.9
20260505060048 -17 0.0 0.0 0.00 0.00 0.00 1012.1
20260505054541 -17 0.0 0.0 0.00 0.00 0.00 1012.2
20260505053041 -17 0.0 0.0 0.00 0.00 0.00 1012.3
20260505051556 -17 0.0 0.0 0.00 0.00 0.00 1012.0
20260505041540 -17 0.0 0.0 0.00 0.00 0.00 1012.5
20260505040040 -17 0.0 0.0 0.00 0.00 0.00 1012.6
20260505034540 -17 0.0 0.0 0.00 0.00 0.00 1012.7
20260505033039 2 0.0 0.0 0.00 0.00 0.00 92 1012.6
20260505031539 2 128 0.0 0.0 0.00 0.00 0.00 92 1012.2
20260505030036 2 128 0.0 0.0 0.00 0.00 0.00 92 1012.2